FW4449 Weather Reports


time (UTC)temp
C
wind
direction
speed
KPH
gust
KPH
rain 1hr
cm
rain 24hr
cm
rain mn
cm
humidity
%
barometer
mb
20260504190006 16 289 22.5 35.4 0.00 0.00 0.00 26 1012.0
20260504185502 15 281 17.7 32.2 0.00 0.00 0.00 28 1011.7
20260504185002 15 313 12.9 32.2 0.00 0.00 0.00 28 1011.8
20260504184002 15 303 16.1 30.6 0.00 0.00 0.00 27 1012.0
20260504183502 15 349 19.3 35.4 0.00 0.00 0.00 27 1012.0
20260504183002 15 265 20.9 32.2 0.00 0.00 0.00 27 1011.8
20260504182502 15 266 20.9 35.4 0.00 0.00 0.00 28 1011.8
20260504181502 14 255 16.1 22.5 0.00 0.00 0.00 32 1012.0
20260504181002 13 272 17.7 24.1 0.00 0.00 0.00 35 1012.2
20260504180005 13 233 19.3 25.7 0.00 0.00 0.00 37 1012.2
20260504175503 12 248 20.9 30.6 0.00 0.00 0.00 37 1012.3
20260504175002 13 248 25.7 32.2 0.00 0.00 0.00 37 1012.5
20260504174502 13 273 30.6 41.8 0.00 0.00 0.00 37 1012.4
20260504174002 13 243 30.6 41.8 0.00 0.00 0.00 36 1012.5
20260504173503 14 253 25.7 48.3 0.00 0.00 0.00 33 1012.5
20260504172502 15 307 20.9 35.4 0.00 0.00 0.00 27 1012.5
20260504172002 15 308 22.5 35.4 0.00 0.00 0.00 28 1012.4
20260504171502 15 305 24.1 37.0 0.00 0.00 0.00 27 1012.5
20260504171002 15 336 25.7 37.0 0.00 0.00 0.00 28 1012.5
20260504170502 15 305 27.4 40.2 0.00 0.00 0.00 27 1012.6
20260504151000 12 281 24.1 35.4 0.00 0.00 0.00 31 1012.7
20260504150501 12 283 22.5 30.6 0.00 0.00 0.00 33 1012.8
20260504141001 11 285 25.7 33.8 0.00 0.00 0.00 31 1013.0
20260504140501 11 276 24.1 33.8 0.00 0.00 0.00 31 1012.8
20260504130502 8 270 19.3 25.7 0.00 0.00 0.00 35 1012.7
20260504110501 8 285 20.9 25.7 0.00 0.00 0.00 34 1012.3
20260504100501 7 295 16.1 22.5 0.00 0.00 0.00 34 1012.6
20260504082001 3 134 0.0 0.0 0.00 0.00 0.00 46 1013.5
20260504081501 2 134 0.0 0.0 0.00 0.00 0.00 49 1013.6
20260504080501 3 134 0.0 1.6 0.00 0.00 0.00 48 1013.6
20260504050502 5 249 4.8 4.8 0.00 0.00 0.00 43 1014.9
20260504050004 5 253 4.8 6.4 0.00 0.00 0.00 42 1014.9
20260504045502 6 248 4.8 6.4 0.00 0.00 0.00 40 1015.0
20260504045002 6 247 4.8 6.4 0.00 0.00 0.00 39 1015.1
20260504044003 7 255 3.2 6.4 0.00 0.00 0.00 37 1015.2
20260504043502 7 245 4.8 9.7 0.00 0.00 0.00 37 1015.2
20260504042502 7 255 6.4 8.0 0.00 0.00 0.00 37 1015.2
20260504042002 6 222 4.8 8.0 0.00 0.00 0.00 38 1015.3
20260504041502 7 233 4.8 6.4 0.00 0.00 0.00 37 1015.4
20260504041002 8 246 4.8 6.4 0.00 0.00 0.00 36 1015.4
20260504040502 8 269 6.4 8.0 0.00 0.00 0.00 37 1015.4
20260504040004 8 271 6.4 8.0 0.00 0.00 0.00 37 1015.3
20260504035502 8 276 6.4 8.0 0.00 0.00 0.00 37 1015.3
20260504035002 8 277 6.4 9.7 0.00 0.00 0.00 37 1015.4
20260504034502 8 271 6.4 9.7 0.00 0.00 0.00 37 1015.3
20260504034002 7 284 4.8 8.0 0.00 0.00 0.00 39 1015.3
20260504033002 7 289 6.4 8.0 0.00 0.00 0.00 41 1015.3
20260504032502 7 289 6.4 8.0 0.00 0.00 0.00 43 1015.3
20260504031502 7 302 6.4 8.0 0.00 0.00 0.00 43 1015.2
20260504031002 7 324 6.4 6.4 0.00 0.00 0.00 44 1015.2
20260504030502 8 324 4.8 6.4 0.00 0.00 0.00 43 1015.2
20260504030005 7 324 4.8 6.4 0.00 0.00 0.00 43 1015.2
20260504025002 8 324 6.4 8.0 0.00 0.00 0.00 41 1015.2
20260504024002 8 324 4.8 8.0 0.00 0.00 0.00 40 1015.0
20260504023502 8 324 4.8 8.0 0.00 0.00 0.00 39 1015.0
20260504023002 9 352 6.4 8.0 0.00 0.00 0.00 39 1015.0
20260504022502 9 352 8.0 8.0 0.00 0.00 0.00 39 1015.0
20260504022002 9 352 6.4 9.7 0.00 0.00 0.00 40 1015.1
20260504021502 9 353 6.4 9.7 0.00 0.00 0.00 39 1015.0
20260504021002 10 351 8.0 9.7 0.00 0.00 0.00 38 1015.0
20260504020502 10 345 8.0 9.7 0.00 0.00 0.00 37 1015.0
20260504015502 11 341 9.7 16.1 0.00 0.00 0.00 32 1015.0
20260504015002 12 338 11.3 17.7 0.00 0.00 0.00 30 1014.9
20260504014502 12 340 12.9 16.1 0.00 0.00 0.00 29 1015.0
20260504014002 13 340 14.5 20.9 0.00 0.00 0.00 27 1015.0
20260504013502 14 335 17.7 29.0 0.00 0.00 0.00 25 1015.0
20260504013002 14 335 19.3 29.0 0.00 0.00 0.00 25 1015.0
20260504012002 14 335 22.5 37.0 0.00 0.00 0.00 24 1014.9
20260504011502 15 345 24.1 37.0 0.00 0.00 0.00 23 1014.9
20260504011002 15 348 24.1 30.6 0.00 0.00 0.00 23 1014.9
20260504010502 15 338 24.1 33.8 0.00 0.00 0.00 24 1015.0
20260504010004 15 354 22.5 33.8 0.00 0.00 0.00 23 1014.9
20260504005502 15 333 20.9 32.2 0.00 0.00 0.00 23 1015.0
20260504005002 15 329 22.5 33.8 0.00 0.00 0.00 21 1014.9
20260504004002 16 312 20.9 35.4 0.00 0.00 0.00 19 1014.9
20260504003502 16 311 24.1 35.4 0.00 0.00 0.00 17 1014.9
20260504003002 15 343 20.9 35.4 0.00 0.00 0.00 20 1014.9
20260504002502 16 325 20.9 40.2 0.00 0.00 0.00 20 1015.2
20260504001502 16 297 12.9 25.7 0.00 0.00 0.00 17 1014.9
20260504001002 15 284 14.5 24.1 0.00 0.00 0.00 18 1015.0
20260504000502 15 298 19.3 33.8 0.00 0.00 0.00 20 1015.3
20260504000006 16 300 29.0 72.4 0.00 0.00 0.00 19 1015.4
20260503235502 15 314 37.0 72.4 0.00 0.00 0.00 20 1015.3
20260503235003 16 319 27.4 53.1 0.00 0.00 0.00 19 1015.1
20260503234502 16 293 20.9 37.0 0.00 0.00 0.00 19 1015.0
20260503234002 16 295 25.7 40.2 0.00 0.00 0.00 17 1015.2
20260503233502 16 299 30.6 51.5 0.00 0.00 0.00 18 1015.1
20260503233002 16 294 27.4 51.5 0.00 0.00 0.00 19 1015.3
20260503232502 16 281 24.1 41.8 0.00 0.00 0.00 17 1015.0
20260503231502 17 300 22.5 40.2 0.00 0.00 0.00 17 1015.2
20260503231002 17 329 25.7 35.4 0.00 0.00 0.00 16 1015.2
20260503230502 17 311 29.0 40.2 0.00 0.00 0.00 16 1015.4
20260503225502 17 300 22.5 40.2 0.00 0.00 0.00 19 1015.1
20260503224502 17 279 32.2 46.7 0.00 0.00 0.00 16 1015.3
20260503224002 17 337 32.2 46.7 0.00 0.00 0.00 17 1015.3
20260503223503 17 330 27.4 45.1 0.00 0.00 0.00 17 1015.2
20260503222002 16 302 20.9 35.4 0.00 0.00 0.00 18 1015.2
20260503221502 16 314 24.1 35.4 0.00 0.00 0.00 16 1015.5
20260503221003 16 328 25.7 40.2 0.00 0.00 0.00 17 1015.4
20260503220503 16 318 27.4 41.8 0.00 0.00 0.00 18 1015.4
20260503220004 16 316 25.7 41.8 0.00 0.00 0.00 19 1015.6
20260503215001 16 328 22.5 37.0 0.00 0.00 0.00 19 1015.8
20260503214001 16 302 30.6 40.2 0.00 0.00 0.00 19 1015.9
20260503213502 16 325 29.0 46.7 0.00 0.00 0.00 19 1016.0
20260503213002 16 309 25.7 43.5 0.00 0.00 0.00 18 1016.0
20260503212002 16 327 22.5 40.2 0.00 0.00 0.00 18 1016.1
20260503211002 16 300 29.0 46.7 0.00 0.00 0.00 20 1016.3
20260503210502 16 316 29.0 40.2 0.00 0.00 0.00 21 1016.3
20260503210006 16 333 25.7 40.2 0.00 0.00 0.00 19 1016.4
20260503205502 16 329 22.5 35.4 0.00 0.00 0.00 21 1016.5
20260503205002 16 314 24.1 35.4 0.00 0.00 0.00 20 1016.6
20260503204502 15 333 27.4 41.8 0.00 0.00 0.00 20 1016.6
20260503204002 15 343 30.6 46.7 0.00 0.00 0.00 21 1016.6
20260503203002 16 320 25.7 46.7 0.00 0.00 0.00 21 1016.6
20260503202002 15 347 27.4 43.5 0.00 0.00 0.00 21 1016.8
20260503201002 15 311 29.0 41.8 0.00 0.00 0.00 21 1016.8
20260503200502 15 323 24.1 41.8 0.00 0.00 0.00 20 1016.9
20260503200004 16 314 19.3 32.2 0.00 0.00 0.00 20 1016.9
20260503194001 16 308 19.3 33.8 0.00 0.00 0.00 21 1016.7
20260503193501 16 330 22.5 35.4 0.00 0.00 0.00 21 1016.8
20260503193001 16 323 25.7 41.8 0.00 0.00 0.00 21 1016.8
20260503192502 17 300 22.5 41.8 0.00 0.00 0.00 19 1016.8
20260503192001 16 291 22.5 38.6 0.00 0.00 0.00 21 1017.0
20260503191501 16 291 29.0 41.8 0.00 0.00 0.00 21 1017.0
20260503191002 16 285 29.0 45.1 0.00 0.00 0.00 21 1017.0